{"data":{"norad_id":65693,"intl_designator":"2025-212T","name":"STARLINK-35060","alt_names":[],"object_type":"PAYLOAD","status":"ACTIVE","operator":null,"country":"US","launch_date":"2025-09-21","launch_site_code":"AFETR","launch_vehicle":null,"mission":null,"orbit_class":"UNKNOWN","rcs_meters":null,"size_class":null,"mass_kg":null,"dimensions":null,"purposes":["comms"],"wikipedia_slug":null,"has_3d_model":false,"image_url":null,"decayed_at":null,"tle_current":{"epoch":"2026-09-20T23:31:09.752736Z","epoch_age_seconds":67081,"freshness":"FRESH","line1":"1 65693U 25212T   26263.97997399  .00019979  00000+0  60087-3 0  9990","line2":"2 65693  53.1592 147.1394 0001424  58.7126 301.4016 15.34399966 57300","mean_motion":15.34399966,"eccentricity":0.0001424,"inclination_deg":53.1592,"raan_deg":147.1394,"arg_perigee_deg":58.7126,"mean_anomaly_deg":301.4016,"bstar":0.00060087,"rev_number":5730,"period_min":93.84776016086,"perigee_km":461.72920559768,"apogee_km":463.67747692687,"semimajor_km":6840.8403412623,"source":"CELESTRAK","updated_at":"2026-09-21T09:00:35.688544Z"}}}